TIMESTAMP,CO2_1_1_1,H2O_1_1_1,TAU_1_1_1,TAU_SSITC_TEST_1_1_1,H_1_1_1,H_SSITC_TEST_1_1_1,LE_1_1_1,LE_SSITC_TEST_1_1_1,FC_1_1_1,FC_SSITC_TEST_1_1_1,WD_0_0_1,WS_0_0_1,WS_MAX_0_0_1,U_SIGMA_0_0_1,V_SIGMA_0_0_1,W_SIGMA_0_0_1,USTAR_0_0_1,MO_LENGTH_0_0_1,ZL_0_0_1,FETCH_MAX_0_0_1,FETCH_70_0_0_1,FETCH_80_0_0_1,FETCH_90_0_0_1,PA_0_0_1,RH_0_0_1,TA_0_0_1,VPD_0_0_1,T_SONIC_0_0_1,T_SONIC_SIGMA_0_0_1
[yyyymmddHHMMSS],[mmolCO2 mol-1],[mmolH2O mol-1],[kg m-1 s-2],[#],[W m-2],[#],[W m-2],[#],[umolCO2 m-2 s-1],[#],[Decimal degrees],[m s-1],[m s-1],[m s-1],[m s-1],[m s-1],[m s-1],[m],[#],[m],[m],[m],[m],[kPa],[%],[deg C],[hPa],[deg C],[deg C]
20210629003000,403.26081868184372,20.793117793026191,1.6569573167976717E-002,1,-1.5224493456353856,0,-2.3880179098010288,2,-2.0672104312361403,1,170.39153873530753,0.67336985736557808,2.5609671998370329,0.66182151601472350,0.78721074032364247,0.16645666961515959,0.12189160636362477,99.560216828812031,0.19083927903320450,50.497798088919929,401.00000000000000,705.00000000000000,1764.0000000000000,94.120684547902087,91.851724137931029,18.559655172413784,1.7365991384579456,19.717874087853943,6.9873177766599168E-002
20210629010000,404.55074490370578,21.143402098786954,4.4531687803478895E-002,0,-8.7925449281130739,0,8.7214257251864620,1,-0.37468439391499114,2,106.03675126203140,1.8864071807578131,4.1538811987452497,0.70105980782486244,0.50587789267238426,0.28880807914132484,0.19978777010773419,75.919141635474347,0.25026626474820374,123.93059343616095,1106.0000000000000,2008.0000000000000,5322.0000000000000,94.128384136284737,94.156666666666666,18.432000000000016,1.2354396573282633,19.624077835930734,0.12840771813405361
20210629013000,408.97983054088269,21.589508080130546,8.9101635482676647E-002,0,-6.2183520932967378,0,3.7875697635267143,1,0.53630320191257053,2,86.857092886971174,1.4845894411985654,4.4425809304952590,0.72269742097708856,0.76325202415396032,0.31161913076800701,0.28258470663306312,303.81820248896111,6.2537398498005867E-002,115.79092779622565,211.70274563381022,253.35411688798348,317.16929025056470,94.143297393257967,96.409999999999997,18.390333333333331,0.75704378336013867,19.642834309208638,8.6365736727536294E-002
20210629020000,412.02127235084669,21.286490386504902,1.9872595348858893E-002,1,-11.517918228986870,0,-2.0182377568688383,1,2.9324642778256975,1,68.641251471178364,1.2975685652245386,2.7061342575899316,0.41849907964375344,0.41304737175999418,0.20235848656850486,0.13337376992239564,17.248612384379669,1.1015378847058088,138.08847467874904,1185.0000000000000,2129.0000000000000,5536.0000000000000,94.173412948133688,96.443333333333328,18.164666666666676,0.73946871465630692,19.411845968458465,0.12019039475190041
20210629023000,415.09386132154913,21.136389009513067,1.3267042777533060E-002,0,-4.3850120484839152,1,2.6549643711706135,2,0.18014883005512008,2,55.355539844741102,1.3679307391721758,2.6692457295238357,0.36652215129561438,0.34368925839802794,0.17778886476508421,0.10891032182210193,24.671955411261465,0.77010515312975514,220.62210104826136,2119.0000000000000,3931.0000000000000,-9999.,94.192883822048614,97.443333333333328,17.891333333333364,0.52250126182070067,19.178115068223747,0.10045529815417163
20210629030000,415.85043672800987,21.115169052632801,6.4829390925105410E-002,1,-8.4060292621306463,1,-4.6746778293809639,1,1.4118587833629865,2,85.108697764756940,1.4696983539540156,3.2987584525043796,0.40845139413972142,0.79775662703675376,0.22046997713917638,0.24071773409184802,138.98799479234071,0.13670245425432270,134.33271844284053,245.60305253664188,293.92412599147832,367.95812743572714,94.216688504123269,97.396666666666661,17.887000000000000,0.53189335331976961,19.171829837375242,0.12316424296680703
20210629033000,416.43664228272223,21.407419044658447,7.7986976016567192E-002,0,-19.322968860233441,0,-3.3376028861974829,1,3.4136404931105040,0,108.58578788647981,1.8910738069896054,3.9388596061829335,0.55754846997437035,0.38158512012075424,0.29361725769612540,0.26406446428034674,79.818707321816973,0.23803943508374384,115.02642077173201,210.30498296602622,251.68135196821262,315.07518706851801,94.211016386501740,98.409999999999997,17.939999999999998,0.32594203394073928,19.302236658732113,0.17338251246224864
20210629040000,416.37580550689984,21.456160829910004,9.9044942213532897E-002,0,-13.349764540788586,0,-1.2986697032008432,0,2.3830288375904791,0,118.68051645824512,2.0769944850212991,4.4290389217800437,0.59122040815198507,0.46991386554218367,0.35592199105787586,0.29759632693615079,165.39448490308024,0.11487686552023689,108.51083248271614,198.39240953340257,237.42504408307011,297.22798131135488,94.228922027645567,98.239999999999995,18.006666666666661,0.36230725616425619,19.336306349630831,0.11679786317438401
20210629043000,418.31184659608556,21.354021514356315,0.12624194437876324,1,-15.151200216217726,0,-3.4804659659747039,1,3.6684903808560589,0,128.79840315674812,2.0811265264703525,3.9699839350802035,0.63510297540115623,0.51643056373914797,0.38673434758759939,0.33589641823477351,209.52326741451941,9.0682052807101982E-002,111.86365410843584,204.52243679283015,244.76112108179706,306.41187918319594,94.216924961805560,98.813333333333333,17.836333333333357,0.24167864329852137,19.142270707872228,0.10016897299574773
20210629050000,423.98898504486817,21.119251343731595,4.7907163267447789E-002,0,-6.7151224036731803,0,-4.3592308930535020E-002,2,0.82946655581134709,1,136.33171407810815,1.4609500489769207,3.1742972744161984,0.43125153070472289,0.37324711470743877,0.25732314339517731,0.20683309757361293,110.37148734615549,0.17214590884700817,105.13997036735630,192.22939850519373,230.04949393728404,287.99466774344990,94.219218366081094,99.049999999999997,17.623333333333335,0.19089898556834442,18.904435647324135,8.1661391833704508E-002
20210629053000,429.25156916855275,21.025294251630452,3.3241820115296195E-002,0,-8.1198725768383078,0,-1.2353504432880917,1,6.0553853311993553,0,165.04177760713014,1.2940286839884929,3.0407617364797441,0.40320989231584725,0.47428397801565136,0.29070150859435145,0.17227491024108665,52.735840934072506,0.36028628089486187,85.607343000215664,749.00000000000000,1354.0000000000000,3554.0000000000000,94.202920871527780,99.176666666666662,17.529666666666685,0.16447091994908533,18.814054744296641,8.8995134353011401E-002
20210629060000,430.41148619068451,20.961854831623654,5.4571469416910975E-002,0,-13.393366652607702,0,-0.88605131195855713,2,9.3250704599468381,0,156.81060060970668,1.5073881563718177,3.4814544655668120,0.52609725945258878,0.50736008160216339,0.30449654892333439,0.22074533555696618,67.246053357826312,0.28254446248165904,96.805989480972883,176.99222345800860,211.81448703461174,265.16660294594021,94.172044782335078,99.153333333333336,17.480333333333363,0.16860611897082664,18.791529334174299,0.11473543509781248
20210629063000,432.16754309605750,20.935904631913782,6.6954919493224935E-002,0,-10.974971413323679,0,1.3564556251632798,2,5.6806229322647788,0,151.55577702475793,1.4131864233357356,3.2761148097131572,0.52288548753228670,0.44065401938713344,0.29460510727930400,0.24450876104628799,111.52672414173011,0.17036275517116836,107.86938995605038,197.21964801705641,236.02154807547441,295.47097085473996,94.177833140190970,98.953333333333333,17.493666666666684,0.20860987817409751,18.795860481262253,0.10444612184697315
20210629070000,431.64473317385227,21.011154571090795,8.9006137048386627E-002,0,-17.073367256939864,0,0.83865691944478704,1,9.3426355960776029,0,152.23834529400588,1.6875920854695419,3.8486357379687846,0.55826826574873367,0.48236677121040394,0.38518405748058943,0.28193875768422733,109.92068880359834,0.17285190082777230,97.553775565709117,178.35941491504587,213.45066602311493,267.21490488348439,94.186564403645846,98.853333333333339,17.567999999999984,0.22961551098862856,18.852558410644576,0.11318452166735446
20210629073000,434.71934616417809,21.003195472577332,0.12002088097228832,0,-10.728826819545842,0,-1.2267840913709360,1,11.335850320824314,0,167.55918204820438,1.6665978997289177,3.9460290058108574,0.65901586887807950,0.56038347405844224,0.40293876184626332,0.32737469247794454,273.87475449775360,6.9374776929853332E-002,106.04733145139350,193.88834395478887,232.03482793986956,290.48007032638390,94.197282662109387,98.849999999999994,17.564333333333309,0.23022972513795595,18.980780839708075,0.22494393358126621
20210629080000,437.22745087611401,20.943172980769749,9.5559773011054797E-002,0,-8.7360793191740616,0,-5.1604555525577862E-002,2,10.971712829313500,0,159.50636495100741,1.9106755454660729,4.0838168444829970,0.64942965507423189,0.55063973210279671,0.38832486234101515,0.29212219901627295,238.90779740373495,7.9528588880217785E-002,99.712680500984831,182.30658168414357,218.17441652526537,273.12847997155063,94.163764488715273,99.049999999999997,17.481333333333339,0.18919597677360572,19.161675802442801,9.4789456197276148E-002
20210629083000,438.06814734477149,20.907832636599551,9.3168071835992725E-002,0,-8.3002323633845929,0,0.11911721839288747,2,10.237933561639698,0,165.46502348896129,1.8017641032784568,4.5230622221245529,0.62251498096095237,0.62579715263263347,0.41455407992693882,0.28843507793899753,242.03567165643207,7.8500825394739196E-002,93.676014579465004,171.26963108375759,204.96600553311947,256.59311677645042,94.156245560803242,99.099999999999994,17.445333333333338,0.17883127878081267,19.167424404020949,8.0493976633140479E-002
20210629090000,438.44011858708222,20.778352560802336,5.7791806328374516E-002,0,-11.649900066625344,1,-1.5118609338339815,1,7.9368067957422257,0,185.49526898696931,1.6943559457079200,3.7744147566989277,0.48188059874636646,0.47140178253482234,0.35396159020655266,0.22712657437837411,84.195596051043140,0.22566500970527426,87.801988224725264,160.53003748267494,192.11345492310232,240.50324855184635,94.154185332514245,99.099999999999994,17.346666666666692,0.17771990613878189,19.036548625737225,0.26272074330151923
20210629093000,437.90381287419041,20.793476209616809,7.7871557896240590E-002,0,-24.196908312347421,0,1.7648728790440147,1,7.5872874234906016,0,197.64495489710671,1.5705807360882349,3.6914787511578275,0.55820881270401945,0.49680740742634544,0.36125946084678251,0.26365259780159733,63.407218395225577,0.29965042594315505,97.325167569127373,177.94144658651348,212.95046468446230,266.58871216354140,94.152207308159717,99.153333333333336,17.349333333333334,0.16721653820447047,18.296459201388814,0.25165597559184666
20210629100000,436.85193272622308,20.915172993596350,5.5916067335151635E-002,0,-17.224651622929411,0,0.23217302196390105,0,5.0212708547788774,0,202.23483694175496,1.3683008101632037,3.4802573792727918,0.53609428528200354,0.47709345127694075,0.33080449329212441,0.22345902279178850,54.229643018714739,0.35036188590515094,91.486306819797122,167.26614692761402,200.17485750233647,250.59516798021789,94.146413647066183,99.193333333333342,17.434333333333313,0.16017448924812924,17.999101970791571,0.16872754130055961
20210629103000,437.63243200226094,20.981599601280617,8.1609992712043125E-002,0,-12.357652790148522,1,1.4646445007521638,2,8.7237646636038964,0,205.82578661698204,1.6471374415377402,4.1921625344900155,0.61623236620788124,0.53177199908660899,0.38702857715076083,0.26997664462272108,133.31062969725997,0.14252426864345177,93.868835346170172,171.62216894232398,205.38790331039803,257.12128272939168,94.153426681423625,99.216666666666669,17.482000000000028,0.15601026706134008,18.309090607537200,0.15133380467372218
20210629110000,433.65320891137833,21.124970405391323,0.20583857922221485,0,-18.275319115608042,0,-3.0038675947615969,1,16.096971664072040,0,214.30204871343511,2.3206624055730658,5.6883511873337333,0.91790798066571277,0.66940295597123411,0.53904182450741589,0.42875887101820032,361.19400058582642,5.2603310047186803E-002,104.26232947047600,190.62479103648894,228.12918861971033,285.59067335756617,94.193481874131948,99.299999999999997,17.583333333333314,0.14030793437178091,18.678204501681932,0.56197862231880180
20210629113000,428.54510850044011,21.266509818960845,0.10854115627690683,0,-7.6879351755204102,0,-0.79544931830497956,1,4.5930907486962065,0,208.42504896645050,2.1497873692339469,4.8971689295489860,0.70118637821577301,0.65615141877592609,0.47243657961215357,0.31141467048401161,329.00300512340129,5.7750232381231732E-002,89.712165697982897,164.02245112364827,196.29298207645746,245.73552058711275,94.197800652343759,99.209999999999994,17.704333333333352,0.15956039575075920,19.261546165466314,7.3222871532631129E-002
20210629120000,427.04466842550244,21.281548720466954,9.4134541435847846E-002,0,-3.0051555470219111,1,-0.49504794841588801,1,2.0060236880075504,0,208.11487682075438,1.9616924466128083,4.5810050212341400,0.71937061507022115,0.54815441416478161,0.41456976521134459,0.29005226380231558,680.03454278968400,2.7939757180652773E-002,94.093106453033428,172.03220805327092,205.87861540075130,257.73559603649903,94.190272090060773,98.926666666666677,17.759666666666647,0.21754394585471573,19.403693289862758,0.10131351408223334
20210629123000,425.98768834606756,21.411115818146815,6.9289964631145881E-002,0,-2.2885328801691420,0,-0.41613132802299918,2,-0.10830983461940873,1,194.35479843484808,1.7994219402564604,3.6489991006678908,0.57619593196958319,0.49476167546704647,0.35812764132756797,0.24889371501520149,564.23242178480552,3.3674066335816613E-002,93.591362538604358,171.11486015468063,204.78078426006118,256.36124172173731,94.188283699409979,99.010000000000005,17.842333333333329,0.20170134643228038,19.419722505359516,5.6356383089005077E-002
20210629130000,423.84188776656669,21.468973623880181,0.10146712545218795,0,-2.1539166013366216,1,-0.44910148318001575,2,3.2889251250999427,0,204.46274602007213,2.2373840157636149,5.1737145979870931,0.73375796782722702,0.60599053676028469,0.44022233965313468,0.30118493776529859,1062.5007670232183,1.7882340031839999E-002,92.423803491143715,168.98018984206334,202.22612909826353,253.16311660557608,94.212580303798703,98.943333333333328,17.899999999999977,0.21606684494184036,19.532938130046489,3.9774603578932206E-002
20210629133000,417.93262631172377,21.447665991062763,0.14323328826188533,0,4.2337892016606400,1,13.061679386209274,1,-3.4298418067948426,1,203.03305650695140,2.0830787824737991,5.4913180735853917,0.80241729488410118,0.64086589448527398,0.48228513213825919,0.35788378881355126,-906.95221552638270,-2.0949284509959171E-002,98.629179900996718,180.32559702257285,215.80368383590752,270.16060396584948,94.221743657118054,98.253333333333330,17.997000000000014,0.35934399608004469,19.796618882921052,9.4786991286249872E-002
20210629140000,414.80627706270678,21.480852630975225,0.14379754584518750,0,1.9739352412366622,1,17.311422449139677,0,-1.7052545846053384,2,192.16029359259744,1.8229496692155835,4.3185764178036852,0.67617118173985469,0.67113373438210011,0.44303652922914782,0.35865973032437476,-1957.9142361787760,-9.7042044278108624E-003,105.74244912709383,193.33092182873901,231.36773602258538,289.64495040595068,94.218045392795148,97.776666666666671,18.098333333333358,0.46033228721293656,19.964541749742295,5.0723638080646463E-002
20210629143000,410.73874330340516,21.803295657327702,0.14566890964740481,0,39.092845470898361,0,104.59267415357084,0,-10.730655725720393,0,192.83076726958086,1.7016256399277123,4.6705994547893592,0.80293258804247902,0.70340398106413804,0.46835401938840898,0.36139483122706600,-101.13219256495115,-0.18787291680438389,101.76092545280329,186.05142671028983,222.65603957479718,278.73894022082709,94.197627611111116,95.793333333333337,18.659333333333336,0.90215550347141749,20.118687450832795,0.17977817830818768
20210629150000,408.53870521678124,21.514147323707679,0.24768968078678105,0,35.688420479037660,0,89.695205697048706,0,-14.707529093003268,0,202.59301837507431,2.4144147526548045,6.2185965242743784,1.0183737856618882,0.76314846959603866,0.57722386901754086,0.47146014336586789,-245.93440144427399,-7.7256373603776574E-002,106.49653109772042,194.70962417315366,233.01769060335761,291.71049775034447,94.195036481336814,92.863333333333330,18.942333333333352,1.5578289851841987,20.122577370537670,0.17313278141294011
20210629153000,408.76526297882009,21.539414099355376,0.29198265945185714,0,37.285156306855257,0,133.33427895611723,1,-22.746824741619236,1,201.26061914585830,2.3499756026776915,5.5760063782316722,1.0654114230752787,0.81105094699119051,0.60671403774470589,0.51211148545129825,-301.69660974367088,-6.2977174374424974E-002,109.33501728508928,199.89928221240135,239.22838581917932,299.48555117264857,94.194215589626737,91.493333333333339,19.199333333333357,1.8868812280970884,20.365798567877846,0.15444362526514890
20210629160000,408.53133764623374,21.399217766463000,0.25707185853252512,0,27.206560154557270,0,105.09956908835942,0,-13.096837916366995,0,218.59446768943945,2.0860544627244182,5.0257981645084895,1.0301669192017537,0.72688255695822579,0.53163740776427482,0.48060105650558277,-341.70638875632915,-5.5603291671403023E-002,115.50219865297730,211.17485667451504,252.72236862842863,316.37841639557763,94.185134342013896,90.416666666666671,19.283000000000015,2.1368047544245772,20.451788000318743,0.15454675781010985
20210629163000,407.41858700389650,20.981420178757176,0.18557166808347408,0,27.481153047607304,0,80.919277515780095,0,-11.960320348864151,0,223.83358228637408,2.3952728781931478,6.0747218999470469,1.0295781384555447,0.82041076424807680,0.48845262414375562,0.40850896296328876,-207.71791940521561,-9.1470201773660401E-002,108.53210188662233,198.43129678727152,237.47158219400802,297.28624150383604,94.173665519748269,87.193333333333328,19.547666666666657,2.9029105937923192,20.667686843024399,0.16918901737106068
20210629170000,406.04967589750697,20.685296375470244,0.13706516346773545,0,47.835873901982126,0,86.241496751102346,0,-13.882700842896289,0,202.42178654067311,2.3881789223471963,6.2418750262470102,0.86366695673627680,0.76075127581300794,0.56740744084757933,0.35120267419897205,-75.824041586644441,-0.25058015376677889,85.307090432771190,155.96856861214374,186.65454170048190,233.66933697533361,94.174957166240148,84.706666666666663,19.785000000000025,3.5180193265348931,20.887927686588682,0.30145674504683739
20210629173000,405.17780189115939,20.333345165581687,0.34084522679825868,0,138.34738657913681,0,123.20477705353343,0,-20.479819433813013,0,214.41529070984649,2.5179124385059399,7.1741167586383972,1.1330499272076937,1.0328841334836636,0.66139948456274955,0.55473553398440678,-103.28960294118855,-0.18394881439149588,108.78088976219576,198.88616037064301,238.01593772952344,297.96771003872362,94.145268974175352,78.685333333333332,20.695333333333338,5.1869082883298869,21.738769708421501,0.41761205496444531
20210629180000,405.16858304941667,19.902435420157257,0.33554286625394680,0,126.19585071271041,1,234.50594144551769,1,-17.161016760375524,1,214.35421731054106,2.4287501908672464,7.4174753708194059,1.1259944687473620,1.0453850658554709,0.72074849271365393,0.55115694729437992,-111.01513316613379,-0.17114783775979947,101.02948388442267,184.71411824196676,221.05562289156308,276.73540844577030,94.102410766710079,73.657333333333341,21.414333333333332,6.6998826644625780,22.376681136237323,0.39675532225409615
20210629183000,403.70795095415218,19.502442809471976,0.32219125687481975,1,295.01675773715243,1,204.53618787585805,0,-25.772679632763307,0,206.20014263656915,1.9614888471523280,5.8495820820653961,1.0566880737639288,1.0921868735563964,0.69040320113507847,0.54098280748447336,-44.888603240818732,-0.42327002018905890,103.01949897917405,188.35250051793403,225.40983722009639,282.18636809522548,94.057976210425238,68.324333333333328,22.305333333333351,8.5065113073818388,23.224394288988378,0.65876330382697834
20210629190000,403.68964198258232,19.178218904732898,0.35859938418096471,0,148.04173195111829,0,161.90396695963011,0,-16.031966108841466,0,205.04392098817740,2.5096549874234411,7.1613488751206829,1.2174740166976032,1.1653067469325282,0.69848005452647277,0.57086351991498119,-105.09103674080603,-0.18079562814534922,106.55099885633412,194.80920860750010,233.13686773705089,291.85969337965531,94.041048072097624,66.685333333333332,22.425999999999988,9.0125431539654599,23.307170135843990,0.43963812987384604
20210629193000,402.71552873907831,19.983610348265074,0.49272695137437511,1,276.86500243467822,0,275.90474734784669,0,-21.236700368177619,0,181.39014068719274,2.9067216973444405,7.1540960788155941,1.2949106211460091,1.3641406773655538,0.83827819418647320,0.66944291095838648,-90.603507749670712,-0.20970490516211887,104.59603026439704,191.23490251618617,228.85933623626173,286.50473153102041,93.997927513864383,69.358333333333334,22.448666666666668,8.3008477016924829,23.286081131003527,0.63389330675103706
20210629200000,401.26162822665117,20.280239131507024,0.37212758728074152,0,144.65559739484550,0,217.74928058675715,0,-19.683794256854604,0,183.63601912340656,2.7596775498961348,7.6759240497480148,1.2184078772859686,1.1220566622865606,0.79114377658887280,0.58138486395945443,-113.57560316043593,-0.16728944836120097,97.863680232532658,178.92601948502335,214.12874698055160,268.06378177818152,93.979268088324659,72.504666666666665,21.958666666666659,7.2296061407449130,22.882250096639041,0.42933462493255381
20210629203000,398.84455915621095,20.894230665768347,0.35531506469415836,0,94.792181709584142,0,176.54162028454419,0,-20.662389308926439,0,189.57095122559446,2.0280726009151078,7.1606821055532297,1.0696534864833733,1.2226637763569899,0.70027426560597428,0.56833084841609194,-161.92464578714561,-0.11733853057165876,105.95497423428775,193.71948550609591,231.83274750383367,290.22708960020384,93.980421004774314,73.909666666666666,22.133333333333326,6.9335976199091789,23.229795811123267,0.33778790020738170
20210629210000,398.00389557662174,21.012651835363993,0.36667208018498770,0,57.752264040195222,0,153.36717630766890,0,-18.435942077436476,0,208.46245046493152,2.4942596160468740,6.2504467147860998,1.1170592268354096,1.0985230846167164,0.68678552182856090,0.57764151889219606,-279.00637311359429,-6.8098802862343100E-002,109.02465370037201,199.33183859414976,238.54930073525449,298.63541723074223,93.954710463758673,73.355666666666664,22.345333333333315,7.1727730921587112,23.478570771959085,0.19096728476120944
20210629213000,401.85999968971828,20.733407208455372,0.52886418627248377,0,-107.69855507041943,2,179.96640369088266,0,-0.98480954516311647,2,293.68733403754754,3.2162955004676927,9.9891905752566554,1.6591322060825782,2.7138961743045469,0.86929215894902467,0.69155020014613222,256.80460780365479,7.3986211394333076E-002,104.27525463846911,190.64842236585125,228.15746928543126,285.62607739514289,94.006093172092022,80.182333333333332,20.681666666666672,4.8185568791847144,21.626922311571150,1.4421783437492182
20210629220000,407.28964175820994,19.947170840486876,0.20887763410072605,0,63.996585339264378,1,117.59439019770612,1,-6.6394069898827048,1,317.82732814264750,1.6579263298264313,5.8376123417290735,1.0631869864521655,1.0707205103898623,0.57549986369998252,0.43236880880729406,-105.65044689001907,-0.17983833063932789,99.609831343164913,182.11854062159227,217.94937939974898,272.84676019428088,94.068679034722223,91.543333333333337,17.942666666666696,1.7338651690858569,19.036997932433962,0.48660688146065945
20210629223000,405.02566449100641,20.310980089069655,5.3088661412696102E-002,1,11.892675748764722,0,53.903382432364602,0,-9.1410005060129969,0,22.105702207609710,1.0057695087164251,3.2157547377138944,0.49598247317372590,0.68962491848189744,0.30155600996972470,0.21791205405408778,-72.798222481474141,-0.26099538357320695,96.557388810526604,176.53770214531556,211.27054110968126,264.48564719489883,94.088154487847220,94.126666666666665,17.790999999999997,1.1927633330787877,19.049743830363013,0.17312869801139721